Temp
90 84 78 83 84 84 82 79 78 82 87 83 83 83 85 85 83 82 82 82 82 84 84 83 80 81 81 81 80 80 79 78 82 82 82 78 76 80 81 79 73 77 76 79
83 78 86 87 87 83 82 78 78 83 85 82 82 81 86 85 84 85 83 81 82 84 83 80 80 81 80 79 78 79 79 78 80 83 82 83 83 82 78 71 78 79 79 79
80 85 87 84 83 80 81 78 78 78 84 85 82 77 81 83 83 81 82 84 85 84 82 80 80 80 81 79 78 79 79 79 80 79 79 79 79 79 78 79 81 78 78 78
83 89 84 83 81 83 76 85 83 80 78 71 81 66 77 81 80 79 80 81 84 83 83 82 81 79 79 78 80 79 78 77 77 78 78 76 78 78 79 81 78 79 76 76
81 83 82 80 82 86 80 86 82 80 77 76 75 71 75 78 76 80 80 82 85 85 83 80 80 78 78 79 77 78 77 76 76 77 77 79 77 79 80 80 75 73 75 75
85 92 86 86 88 87 87 82 82 82 78 66 73 70 72 77 78 81 83 82 84 85 81 78 78 78 75 80 80 80 77 75 77 78 76 76 74 75 79 76 78 79 79 78
83 84 89 86 81 86 81 77 67 65 64 63 73 69 72 80 80 81 82 82 82 81 79 78 78 76 77 78 79 80 79 76 77 78 77 76 74 74 73 74 76 72 76 76
73 70 81 85 82 78 79 76 68 55 59 65 75 65 72 78 79 81 84 83 82 81 82 82 80 80 83 81 81 81 80 78 78 78 76 77 75 80 79 74 75 76 75 74
73 72 83 82 85 82 78 72 79 68 71 64 70 73 79 78 77 77 80 80 80 81 79 78 81 82 83 82 81 82 81 79 78 78 78 76 76 74 74 72 72 76 73 74
78 67 82 82 82 83 79 82 69 70 53 52 64 65 65 74 76 79 78 78 80 81 79 73 81 81 82 82 83 81 80 79 78 78 79 78 75 75 74 74 71 71 71 71
80 73 73 79 76 76 76 72 71 70 66 57 55 61 77 75 77 78 79 79 80 79 72 81 83 82 83 83 84 80 80 78 78 78 78 76 77 75 74 73 73 72 71 71
77 72 66 72 81 79 78 73 73 62 58 62 62 62 80 78 79 79 80 80 82 81 83 85 84 83 82 83 83 81 79 80 80 80 77 75 75 74 72 73 73 73 71 71
75 70 62 67 74 73 69 72 73 71 67 59 55 60 76 78 77 78 79 81 80 82 83 83 83 82 81 81 81 81 80 80 81 79 77 75 73 71 71 72 72 72 72 72
68 69 65 61 65 70 65 67 70 67 58 59 59 60 70 66 71 73 76 80 78 74 76 81 82 82 81 79 80 80 79 80 80 78 76 74 73 72 72 72 72 72 73 72
71 64 69 70 71 70 68 66 64 61 64 56 64 62 63 70 67 69 73 71 66 70 77 80 80 81 82 79 77 79 79 79 78 75 74 74 74 74 73 72 72 73 72 72
70 65 67 64 68 68 64 65 65 64 64 67 66 61 70 70 66 66 70 67 65 72 78 80 81 80 78 78 78 78 76 75 76 75 75 76 75 74 73 72 72 72 72 72
67 66 63 60 66 65 55 61 60 61 62 62 55 60 67 64 59 57 60 63 71 77 78 78 78 78 78 79 78 74 75 78 77 76 76 76 76 74 73 73 73 72 71 71
66 64 64 60 63 49 61 68 65 61 58 55 52 53 57 58 58 58 66 71 74 76 76 77 80 79 78 78 78 76 78 78 76 73 76 76 75 74 74 72 72 71 71 69
70 66 63 58 61 61 62 64 62 59 58 62 60 55 58 64 66 62 71 73 75 77 78 77 80 79 78 78 78 77 77 77 76 74 72 70 71 67 67 72 69 65 71 70
67 67 64 63 55 52 62 68 72 71 57 68 69 69 69 68 60 69 76 78 77 77 76 76 78 77 74 73 74 74 75 74 73 73 73 74 73 71 70 71 69 66 70 69
65 64 61 61 59 62 69 71 73 54 59 72 74 74 73 70 72 74 77 76 76 75 74 76 75 71 67 69 71 69 66 63 65 69 71 70 70 70 70 69 70 69 69 69
63 62 64 63 57 54 72 71 62 69 73 75 75 75 74 74 75 74 73 71 70 70 71 73 67 62 62 63 65 62 59 62 64 66 65 66 66 69 71 68 69 69 68 66
62 67 64 64 62 68 73 71 74 75 74 75 75 76 74 73 71 70 67 65 64 63 62 63 62 59 59 60 60 57 57 60 61 61 62 63 64 64 63 62 64 68 69 69
68 69 66 63 69 70 72 74 75 77 75 75 76 75 74 70 67 62 62 60 58 59 59 61 61 59 58 59 58 58 58 58 59 58 59 61 60 58 59 56 55 54 52 53
72 68 67 66 69 70 72 74 73 71 74 73 74 72 68 64 62 61 58 56 56 60 61 61 58 57 56 56 56 56 56 56 56 56 58 59 60 60 61 62 62 60 61 47
73 70 65 66 74 72 72 72 71 67 68 71 66 63 63 63 60 61 59 59 58 58 59 58 56 56 56 56 55 55 55 55 54 54 57 56 57 58 59 58 59 51 47 45
MSLP
1008.15 1007.64 1006.73 1006.28 1006.78 1006.78 1006.86 1006.52 1006.05 1005.83 1005.93 1006.28 1005.75 1005.85 1006.26 1007.30 1007.92 1008.33 1008.82 1009.38 1009.89 1010.32 1011.49 1012.42 1013.26 1013.66 1014.00 1014.46 1014.78 1015.01 1015.40 1015.93 1015.95 1016.13 1016.02 1016.70 1017.02 1017.37 1017.59 1018.15 1018.62 1018.60 1018.48 1018.10
1007.92 1006.90 1006.64 1006.72 1007.03 1006.89 1006.76 1006.39 1005.85 1005.73 1006.00 1006.54 1005.80 1005.66 1005.83 1006.66 1007.24 1007.61 1008.29 1009.05 1009.63 1010.33 1011.34 1012.45 1013.08 1013.58 1014.01 1014.67 1015.04 1015.34 1015.64 1016.06 1016.13 1016.12 1016.33 1016.37 1016.68 1017.19 1017.95 1018.57 1018.06 1018.21 1018.18 1018.19
1006.81 1006.18 1006.86 1007.09 1006.76 1006.49 1006.12 1005.84 1005.82 1005.82 1005.69 1005.82 1005.46 1005.15 1004.82 1006.31 1007.14 1008.02 1008.60 1008.85 1009.34 1010.06 1010.99 1012.11 1012.82 1013.44 1014.04 1014.71 1015.16 1015.50 1015.91 1016.19 1016.30 1016.45 1016.69 1016.95 1017.11 1017.06 1017.22 1017.46 1017.51 1018.14 1018.33 1018.38
1006.54 1006.25 1006.66 1006.45 1006.23 1006.29 1005.55 1005.62 1005.62 1005.61 1005.53 1004.78 1005.42 1004.77 1004.83 1005.29 1006.33 1007.32 1008.16 1008.83 1009.23 1010.24 1011.05 1011.93 1012.78 1013.53 1014.18 1014.92 1015.28 1015.68 1016.07 1016.41 1016.59 1016.62 1016.59 1016.61 1016.38 1016.41 1017.03 1017.29 1017.82 1018.01 1018.53 1018.67
1005.84 1005.84 1006.05 1006.01 1005.81 1005.75 1005.48 1005.84 1005.90 1005.85 1005.52 1004.99 1004.95 1004.53 1004.35 1005.33 1005.61 1006.19 1007.54 1008.31 1008.88 1009.98 1010.92 1011.97 1012.97 1013.79 1014.39 1014.92 1015.35 1015.75 1016.16 1016.48 1016.69 1016.78 1016.71 1016.39 1016.56 1016.89 1017.15 1017.39 1017.86 1018.31 1018.60 1018.69
1006.12 1006.03 1006.33 1005.78 1005.54 1005.48 1005.77 1005.88 1005.55 1005.21 1004.90 1004.26 1004.07 1004.79 1004.25 1004.41 1005.15 1005.73 1006.70 1008.19 1008.88 1009.83 1011.25 1012.46 1013.32 1013.94 1014.63 1014.75 1015.14 1015.52 1016.02 1016.49 1016.68 1016.75 1017.00 1017.04 1017.14 1017.23 1016.98 1017.42 1017.24 1017.47 1017.74 1017.98
1005.36 1005.21 1005.15 1006.16 1005.55 1005.08 1005.78 1005.47 1004.61 1003.84 1003.62 1003.45 1004.68 1005.05 1004.65 1005.14 1005.93 1006.31 1006.52 1008.09 1009.19 1010.30 1011.42 1012.37 1013.07 1013.83 1014.18 1014.51 1014.94 1015.42 1015.75 1016.18 1016.60 1016.80 1017.00 1017.22 1017.42 1017.58 1017.74 1017.59 1017.44 1017.70 1017.47 1017.72
1005.32 1004.97 1005.25 1005.84 1005.62 1005.40 1005.31 1005.64 1005.09 1004.30 1004.30 1004.17 1004.69 1004.39 1004.60 1006.16 1006.82 1007.05 1006.91 1008.23 1009.43 1010.15 1011.02 1011.79 1012.85 1013.36 1013.49 1014.13 1014.76 1015.12 1015.59 1016.12 1016.50 1016.83 1017.06 1017.35 1017.62 1017.28 1017.51 1017.92 1017.82 1017.53 1017.57 1017.65
1005.83 1005.51 1005.95 1006.37 1006.19 1006.31 1005.27 1005.68 1005.92 1005.94 1005.69 1005.22 1004.51 1004.42 1004.95 1006.39 1006.76 1007.41 1007.70 1008.62 1009.29 1010.03 1011.30 1012.14 1012.71 1013.02 1013.36 1014.04 1014.64 1014.97 1015.38 1015.95 1016.33 1016.54 1017.00 1017.44 1017.61 1017.70 1017.84 1018.17 1018.29 1017.76 1017.94 1017.74
1007.00 1006.60 1006.21 1006.16 1006.90 1006.48 1006.34 1006.25 1006.16 1005.89 1005.95 1005.44 1004.57 1004.64 1005.19 1005.41 1005.88 1006.65 1007.68 1008.50 1009.25 1010.14 1011.34 1012.28 1012.50 1012.97 1013.51 1013.96 1014.54 1015.12 1015.52 1015.73 1016.07 1016.48 1016.83 1017.16 1017.58 1017.76 1017.80 1017.92 1018.06 1018.18 1018.18 1018.04
1008.02 1007.76 1006.81 1006.50 1006.03 1005.58 1005.98 1006.19 1006.84 1007.17 1007.38 1006.46 1005.76 1005.18 1005.50 1005.92 1006.57 1006.67 1007.27 1008.43 1009.15 1010.10 1011.59 1011.60 1012.16 1012.92 1013.45 1013.90 1014.25 1015.05 1015.35 1015.71 1016.06 1016.37 1016.78 1017.16 1017.27 1017.53 1017.77 1017.90 1017.87 1017.91 1017.98 1017.94
1009.09 1008.79 1007.53 1006.68 1006.16 1007.06 1007.00 1006.98 1007.08 1007.14 1007.74 1007.56 1007.51 1006.40 1006.31 1006.65 1007.08 1007.20 1007.50 1008.53 1009.13 1010.13 1010.59 1011.16 1011.95 1012.75 1013.29 1013.56 1014.00 1014.59 1015.24 1015.40 1015.54 1015.91 1016.43 1016.87 1017.24 1017.46 1017.60 1017.67 1017.74 1017.77 1017.65 1017.58
1009.94 1009.09 1008.18 1006.66 1006.57 1007.55 1007.44 1007.65 1008.07 1008.12 1008.73 1008.30 1007.64 1007.22 1007.57 1007.50 1007.57 1007.81 1007.96 1008.75 1009.49 1009.88 1010.51 1011.15 1011.94 1012.60 1013.20 1013.58 1014.02 1014.47 1014.96 1015.24 1015.35 1015.80 1016.23 1016.69 1017.03 1017.33 1017.46 1017.43 1017.44 1017.44 1017.38 1017.21
1011.13 1010.04 1009.27 1008.14 1007.66 1008.05 1008.02 1008.26 1008.61 1009.03 1009.13 1008.67 1008.34 1008.12 1007.75 1008.26 1008.65 1008.91 1008.99 1009.19 1009.85 1010.84 1011.18 1011.40 1011.89 1012.32 1012.98 1013.74 1014.14 1014.47 1014.84 1015.12 1015.33 1015.74 1016.13 1016.40 1016.71 1016.86 1017.04 1017.10 1017.07 1016.94 1016.89 1016.82
1011.10 1010.19 1009.46 1009.00 1008.68 1008.59 1008.66 1008.99 1009.59 1009.82 1009.77 1010.02 1009.18 1009.25 1009.63 1009.60 1010.24 1010.24 1010.04 1010.37 1011.09 1011.27 1011.31 1011.40 1011.80 1012.09 1012.68 1013.43 1014.16 1014.45 1014.72 1014.97 1015.38 1015.76 1015.98 1016.19 1016.35 1016.47 1016.56 1016.65 1016.58 1016.40 1016.31 1016.24
1011.34 1010.47 1010.03 1009.28 1009.05 1009.23 1009.25 1009.56 1010.11 1010.46 1010.83 1010.37 1010.25 1010.75 1011.36 1011.57 1011.40 1011.09 1011.33 1011.80 1012.17 1011.74 1011.14 1011.20 1011.55 1012.10 1012.76 1013.29 1013.65 1014.03 1014.58 1014.95 1015.30 1015.37 1015.42 1015.54 1015.75 1015.89 1016.00 1016.04 1015.95 1015.83 1015.76 1015.62
1011.20 1010.92 1010.28 1009.02 1009.35 1009.38 1009.84 1010.86 1011.55 1012.06 1012.50 1012.33 1012.68 1013.48 1013.35 1013.41 1012.83 1013.12 1013.19 1012.82 1011.96 1011.26 1011.17 1011.48 1011.82 1012.33 1012.81 1013.13 1013.74 1014.31 1014.52 1014.68 1014.86 1015.00 1015.12 1015.19 1015.25 1015.27 1015.34 1015.34 1015.27 1015.19 1015.12 1015.07
1011.22 1011.18 1010.79 1009.59 1009.35 1009.40 1010.80 1011.58 1012.27 1012.59 1013.42 1013.99 1014.72 1015.01 1015.00 1014.90 1014.44 1013.88 1013.64 1012.69 1011.98 1011.56 1011.67 1011.77 1011.92 1012.50 1013.17 1013.55 1013.94 1014.30 1014.40 1014.52 1014.70 1014.98 1014.82 1014.77 1014.76 1014.66 1014.50 1014.48 1014.37 1014.34 1014.40 1014.29
1011.61 1011.24 1010.19 1009.88 1009.41 1010.03 1010.85 1011.33 1011.86 1012.07 1012.97 1013.78 1014.07 1014.65 1014.58 1014.21 1014.01 1013.60 1013.05 1012.82 1012.49 1012.22 1012.24 1012.44 1012.66 1013.02 1013.46 1013.86 1014.26 1014.39 1014.44 1014.54 1014.67 1014.78 1014.83 1014.90 1014.83 1014.55 1014.27 1013.58 1013.81 1013.75 1013.38 1013.35
1011.46 1011.45 1010.76 1010.05 1009.51 1009.16 1010.34 1011.03 1011.41 1011.44 1011.60 1012.73 1012.86 1012.79 1012.98 1013.37 1012.84 1012.69 1012.74 1012.74 1012.84 1013.05 1013.26 1013.41 1013.49 1013.88 1014.56 1015.07 1015.06 1014.91 1014.68 1014.72 1014.66 1014.80 1014.60 1014.42 1014.36 1014.25 1013.90 1013.42 1013.32 1013.48 1012.92 1012.56
1010.30 1010.40 1010.03 1009.60 1009.45 1009.55 1010.29 1010.71 1010.96 1010.93 1011.41 1011.53 1011.46 1011.59 1011.74 1011.97 1012.51 1012.97 1013.05 1013.28 1013.60 1013.85 1014.03 1014.04 1014.41 1015.30 1016.18 1016.22 1015.77 1015.73 1016.26 1016.52 1016.55 1015.80 1015.01 1014.60 1014.41 1014.08 1013.73 1013.37 1013.04 1012.75 1012.40 1012.06
1009.70 1009.64 1009.35 1009.59 1009.59 1009.56 1010.40 1010.62 1010.50 1010.71 1011.09 1011.15 1011.20 1011.40 1011.87 1012.35 1012.89 1013.49 1014.03 1014.48 1014.83 1014.96 1015.01 1015.10 1016.08 1017.15 1017.68 1017.63 1017.32 1017.43 1017.65 1017.67 1017.09 1016.40 1015.93 1015.32 1014.94 1014.21 1013.73 1013.33 1012.76 1012.41 1012.14 1011.82
1009.65 1009.74 1009.79 1009.83 1009.68 1010.44 1010.64 1010.65 1010.86 1010.99 1010.97 1011.21 1011.35 1011.82 1012.33 1012.91 1013.76 1014.54 1015.25 1015.94 1016.58 1016.91 1017.28 1017.73 1017.88 1018.31 1018.68 1018.71 1018.68 1018.50 1018.65 1018.37 1017.80 1017.20 1016.60 1016.00 1015.58 1015.23 1014.67 1014.19 1013.57 1012.55 1011.95 1011.47
1009.79 1010.32 1009.99 1010.11 1009.80 1010.14 1010.51 1010.78 1011.13 1011.24 1011.41 1011.88 1012.07 1012.53 1013.13 1013.95 1015.08 1016.06 1016.75 1017.46 1018.05 1018.29 1018.48 1018.68 1018.66 1018.81 1019.18 1019.41 1019.38 1019.37 1019.24 1018.97 1018.24 1017.64 1017.02 1016.50 1016.14 1015.73 1015.38 1015.10 1014.98 1014.40 1013.91 1013.66
1009.30 1010.12 1009.57 1009.63 1009.94 1010.43 1010.72 1011.01 1011.67 1012.18 1012.51 1012.95 1013.15 1013.71 1014.61 1015.61 1016.48 1017.13 1017.91 1018.55 1019.00 1019.02 1019.16 1019.38 1019.53 1019.69 1019.95 1020.16 1020.25 1020.22 1019.90 1019.47 1018.79 1018.15 1017.37 1016.82 1016.27 1015.67 1015.13 1014.58 1014.59 1014.46 1014.22 1015.04
1009.47 1009.30 1009.26 1008.69 1008.81 1009.70 1010.25 1011.78 1012.59 1013.05 1013.08 1014.01 1014.90 1015.49 1016.33 1017.08 1017.57 1018.23 1018.88 1019.29 1019.43 1019.56 1019.86 1020.10 1020.38 1020.49 1020.54 1020.54 1020.60 1020.66 1020.52 1020.05 1019.39 1018.58 1017.78 1017.52 1016.95 1016.21 1015.62 1015.28 1014.76 1014.60 1014.72 1014.82
Wind_Speed
10 10 10 7 7 9 9 10 10 5 3 8 13 9 8 9 10 9 8 7 6 5 7 5 4 3 4 6 6 7 9 7 5 5 5 5 5 5 4 3 2 3 2 4
7 15 13 4 11 10 11 11 11 6 1 8 16 15 14 11 10 9 9 8 8 9 8 8 8 7 7 8 8 9 9 8 4 4 3 3 2 3 4 4 4 4 4 5
15 13 2 7 14 14 16 14 11 16 17 14 14 16 10 8 10 6 6 7 7 9 9 9 9 9 9 9 9 9 8 7 4 4 5 4 5 4 4 5 4 5 5 5
11 8 8 13 13 14 17 13 17 14 16 14 3 14 16 5 10 12 11 10 10 9 9 10 10 10 9 8 7 7 6 6 5 3 3 0 2 2 5 3 5 3 4 4
12 8 10 12 15 15 16 15 15 15 17 18 16 11 11 5 7 12 11 11 10 11 11 10 10 10 8 7 6 6 6 6 5 5 4 4 3 5 3 3 3 3 3 3
17 18 8 17 15 15 11 15 18 17 15 14 9 8 10 10 12 11 10 9 11 12 12 10 9 9 8 7 7 7 7 6 5 5 6 5 5 3 1 3 1 2 2 3
15 13 10 7 14 8 7 13 12 13 11 9 5 8 12 12 9 7 10 11 12 12 12 11 10 8 7 7 7 6 6 6 6 7 6 5 4 3 4 3 3 4 4 4
14 13 2 5 7 11 11 10 11 17 13 16 17 10 6 5 3 3 5 12 12 12 11 10 9 8 9 7 7 7 7 7 7 6 5 4 4 1 1 3 5 4 4 5
12 11 2 3 7 6 6 10 7 11 18 11 13 6 8 4 2 3 8 10 11 12 12 10 8 8 8 8 7 7 7 7 6 5 3 3 3 1 4 3 4 4 4 6
6 14 13 5 6 9 12 5 11 8 10 15 12 8 8 3 6 5 9 10 11 13 13 6 9 9 7 7 8 6 5 4 3 2 3 3 3 1 3 2 4 6 7 7
7 8 14 5 14 13 7 11 6 6 7 14 14 6 3 6 9 8 8 11 13 15 11 11 9 9 10 9 8 8 7 5 5 5 3 3 2 4 4 5 5 6 7 7
6 7 13 18 9 6 9 14 15 11 14 8 12 11 6 7 6 5 3 10 13 16 14 10 10 9 8 8 7 7 5 6 6 4 4 4 4 5 5 6 8 8 8 7
3 5 10 9 6 4 7 8 9 11 10 16 14 9 6 3 4 3 3 11 12 12 11 9 9 9 8 6 5 5 6 7 7 4 6 5 5 5 7 7 9 8 8 8
1 7 11 12 15 13 14 14 11 10 9 13 12 11 14 14 10 3 5 10 11 5 8 8 8 8 7 6 6 6 6 7 6 6 6 6 6 7 7 9 9 9 8 9
4 8 9 12 14 13 13 12 10 15 13 12 17 13 14 12 6 8 8 10 8 2 10 9 9 7 6 6 6 7 7 7 6 6 7 8 8 8 8 9 10 10 9 9
2 6 9 13 3 6 9 5 9 5 10 12 9 7 12 13 8 6 6 8 12 15 9 8 8 6 6 7 6 5 5 4 6 8 8 8 8 9 9 10 10 10 10 10
3 6 7 6 4 10 1 11 9 7 11 10 10 12 13 14 15 12 12 10 5 8 5 4 5 6 5 4 2 4 5 5 7 8 8 8 9 9 10 10 11 11 11 11
4 6 4 6 7 1 5 7 8 12 8 12 10 10 12 12 8 6 8 4 7 5 1 0 2 4 3 3 1 4 6 6 7 8 9 9 10 10 11 11 12 11 11 11
2 5 3 5 3 3 7 1 4 3 3 4 8 8 10 11 1 3 6 3 4 7 7 6 6 5 5 7 7 6 6 7 8 8 10 10 11 10 12 13 13 8 10 11
4 5 7 2 4 3 6 4 2 4 6 11 8 8 8 8 3 9 5 6 8 8 9 8 8 8 8 7 8 7 7 8 9 12 13 12 11 13 13 13 13 11 12 11
5 5 7 2 5 4 4 4 5 6 7 5 5 2 3 7 8 7 8 10 9 9 9 7 8 11 13 12 9 10 12 11 12 14 12 10 10 12 13 13 11 11 11 11
5 4 3 3 5 5 4 5 5 7 5 2 3 4 7 7 7 9 10 11 11 11 11 11 12 10 11 12 9 10 11 12 12 12 12 12 13 10 10 12 11 10 10 11
5 3 5 5 4 3 2 2 3 4 5 4 5 4 6 7 9 10 10 11 12 12 11 10 8 9 10 11 11 10 11 12 12 12 12 12 13 12 11 12 15 11 9 9
5 5 5 3 6 5 4 4 4 5 5 4 6 6 7 9 11 11 10 10 10 10 9 8 8 9 9 10 10 11 12 13 13 12 11 11 11 10 9 5 6 7 8 11
4 7 6 7 4 5 6 7 8 8 9 8 10 10 11 11 10 10 9 9 8 7 8 8 8 8 9 10 11 12 12 13 13 12 11 12 11 12 11 10 9 8 6 4
6 8 6 7 5 9 12 8 9 9 11 8 10 12 11 10 10 8 8 7 7 8 8 8 8 8 8 9 10 12 12 13 12 12 10 10 10 10 10 10 10 4 3 3
Wind_Direction
203 247 258 314 305 322 306 297 292 295 316 271 301 299 281 221 221 226 213 204 202 167 111 115 96 107 117 103 114 126 122 122 139 160 175 160 176 145 136 81 94 125 138 44
226 234 252 291 288 266 279 282 280 294 241 290 301 304 288 231 246 242 210 191 182 154 142 125 115 115 105 103 113 120 114 117 140 144 98 38 123 100 115 177 142 58 41 35
261 297 68 271 270 253 261 269 286 298 313 274 258 272 230 231 241 230 222 175 170 162 139 128 113 110 116 107 117 119 110 109 97 96 134 149 154 159 180 148 131 72 49 28
258 268 278 267 262 269 271 276 291 301 286 293 332 292 297 215 224 219 212 201 189 152 141 130 121 113 108 109 123 120 111 108 102 153 123 30 24 153 69 81 74 96 51 43
261 220 251 264 276 280 300 297 303 299 291 292 285 239 282 198 246 238 212 204 193 168 145 123 115 112 110 127 131 133 132 123 121 106 100 158 101 129 101 110 132 66 102 40
271 287 277 276 287 289 291 277 269 261 258 256 297 322 293 312 358 321 169 186 166 157 128 127 117 117 128 137 143 138 129 124 131 116 117 98 100 48 10 71 339 33 356 343
253 256 238 286 272 237 244 255 268 261 245 283 162 284 299 335 347 307 170 169 159 143 144 142 141 129 141 142 143 136 149 129 137 137 133 126 114 112 141 275 29 316 355 5
278 291 168 119 290 316 301 308 292 301 303 315 319 277 22 21 16 329 140 147 148 152 141 139 130 158 142 139 152 148 139 137 139 146 139 133 149 92 344 45 347 354 342 350
304 274 98 268 299 282 291 249 353 301 269 246 275 297 237 161 190 206 166 165 153 147 135 131 143 146 138 146 154 147 134 139 162 140 148 151 146 54 24 353 324 348 317 342
316 289 296 305 275 226 255 338 276 256 287 289 298 277 294 163 15 185 204 192 162 149 126 149 151 146 142 155 137 149 164 158 163 219 220 175 164 299 331 274 307 326 323 318
310 269 293 237 255 286 240 243 227 304 297 293 290 308 71 14 353 337 195 201 170 150 153 166 145 152 168 169 165 176 188 199 210 229 215 217 258 313 291 288 305 312 310 307
34 305 287 289 314 298 284 293 306 289 277 261 290 287 83 62 32 32 143 172 172 156 175 146 146 156 175 178 180 185 225 252 242 235 219 224 278 302 278 286 300 302 299 305
21 254 289 280 199 212 267 297 277 284 290 270 279 263 75 88 20 50 194 171 168 176 162 158 164 173 179 208 205 225 232 256 272 249 227 235 269 285 280 283 294 292 288 298
240 259 266 287 314 313 292 291 309 294 267 274 278 322 313 47 17 11 253 183 168 151 175 191 195 197 190 213 239 247 253 263 269 258 260 269 277 283 277 280 289 283 277 289
269 271 291 294 299 299 286 276 282 261 271 273 283 277 5 353 338 324 285 90 48 272 217 205 216 223 213 212 241 255 266 270 264 257 259 270 274 273 279 278 281 286 277 277
179 284 306 293 305 289 293 335 350 353 358 314 320 67 7 17 67 21 95 139 180 220 238 235 221 231 230 248 258 274 276 264 239 245 262 273 276 280 282 284 281 281 279 276
268 319 298 284 312 301 207 18 56 63 24 355 24 18 15 43 53 39 3 8 307 246 252 267 256 236 255 293 331 270 248 242 252 266 280 289 290 288 288 287 288 287 283 279
287 283 282 301 286 269 85 78 118 86 88 96 76 49 43 45 28 2 312 199 317 12 353 108 109 101 99 64 40 253 267 275 284 300 288 288 285 282 282 271 269 273 275 273
283 274 271 291 334 116 157 159 199 204 103 155 155 166 162 172 62 298 316 354 53 59 69 65 74 98 62 31 3 331 313 308 300 292 290 285 285 286 281 272 268 264 267 271
211 249 270 228 273 307 71 99 133 191 109 178 166 196 191 186 259 82 121 68 64 51 44 33 37 52 38 11 350 334 323 318 334 336 318 305 302 287 287 288 294 277 264 265
211 235 267 212 260 142 110 138 191 242 78 160 229 121 92 75 64 83 60 54 48 44 40 42 68 56 34 9 8 25 16 2 339 328 325 328 326 315 298 299 293 284 280 275
271 262 217 262 254 202 139 181 265 73 137 143 118 97 112 101 78 70 65 57 49 50 42 58 62 51 37 26 28 33 21 357 348 341 343 343 342 344 335 324 308 304 295 281
244 293 338 277 27 105 227 277 113 166 169 151 153 137 114 108 86 75 73 61 54 50 56 54 60 64 45 37 31 25 12 359 349 348 348 343 341 355 348 343 342 329 326 300
206 200 247 250 168 228 211 170 185 202 132 126 118 114 113 104 90 83 73 66 65 56 57 52 52 49 42 31 28 19 5 353 345 343 340 338 341 337 342 326 343 341 8 359
19 164 243 247 207 183 181 151 141 123 113 107 97 93 92 101 97 95 94 86 76 64 57 46 39 36 31 20 14 8 360 352 347 338 339 342 339 339 330 338 343 334 358 54
178 261 236 277 143 227 152 148 145 155 134 123 107 97 83 89 93 91 83 78 76 65 47 42 33 21 21 12 8 3 359 352 352 338 350 347 332 339 339 335 328 349 294 318